COSMOS 970 DEB, 64983

Orbit data source: Space-Track

COSMOS 970 DEB, 64983 is space debris in LEO originally from a launch on Wed, 21 Dec 1977 UTC launched from the Tyuratam Missile And Space Complex (TTMTR). Debris objects in space refer to the collection of defunct objects orbiting the Earth. Examples of debris include non-operational satellites, rocket bodies, and fragments generated from explosions, collisions, or faulty payload assembly.

Loading next visibility...
Identifier
64983, 1977-121CU
Orbit
LEO
Country
Flag of CISCIS
Related business
Manufacturer
Unknown
Mission
Spacecraft
Bus & Motor
Unknown
Mass
Unknown
Launch date (UTC)
1977-12-21 (48 years ago)
Launch vehicle
Unknown
Launch site
Tyuratam Missile And Space Complex (TTMTR)
Object type
Payload
Rocket body
Debris
Shape & HBR
Unknown shape, 0.1 m
Radar Cross Section
Small (<0.1 m²)

Expand to show TLE details & history
Last TLE update: 6 days ago

TLE from 6 days ago
0 COSMOS 970 DEB
1 64983U 77121CU  26166.08307358  .00000256  00000-0  40854-3 0  9990
2 64983  65.7855  93.2969 0086151  64.0057 315.9566 13.64151449153393
Epoch: 2026-06-15T01:59Z
TLE epoch observation values (Epoch: 2026-06-15T01:59:37.557Z)
Latitude
17.52337°
Longitude
168.13658°
Altitude
976.479 km
Speed
7.388 km/s
True Right ascension
06h 45m 40s
True Declination
17° 25' 40"
Sunlit
Object was in daylight at epoch
Visualization orbit readout
Latitude
Unknown
Longitude
Unknown
Altitude
Unknown
Speed
Unknown
Apparent Right ascension
Unknown
Apparent Declination
Unknown
Sunlit
N/A
Visualization observer readout
Local Sidereal Time
07:15:40
Azimuth
Unknown
Elevation
Unknown
Doppler factor
Unknown
Orbital elements
Apogee altitude
1,082.902 km
Perigee altitude
955.445 km
Semi-major axis
7,397.31 km
Eccentricity
0.00862
Inclination
65.7855°
RAAN
93.2969°
Arg. of periapsis
64.0057°
True anomaly
315.26495°
Mean anomaly
315.9566°
Eccentric anomaly
315.61131°
Mean motion
3.4114 °/min
Orbital period
105.53 mins
BSTAR
0.00040854
Loading maneuver chart data...
Computing Atmospheric mass density...
Loading historical data...
Loading historical data...
Loading historical data...
Loading historical data...
Loading historical data...
Loading historical data...
Loading historical data...

Documentation

Showing up to 5 results
|